Regional Weather Roundup
Issued by NWS

Home | Current Version | Previous Version | Text Only | Print | Product List | Glossary On
Versions: 1 2 3 4 5 6 7 8 9 10 11 12 13 14 15 16 17 18 19 20 21 22 23 24 25 26 27 28 29 30 31 32 33 34 35 36 37 38 39 40 41 42 43 44 45 46 47 48 49 50
000
ASCA44 KEWX 231420
RWRMX

LATIN AMERICA AND CARIBBEAN REGIONAL WEATHER ROUNDUP
NATIONAL WEATHER SERVICE AUSTIN/SAN ANTONIO TX
800 AM CST THU FEB 23 2017

NOTE: "FAIR" INDICATED FEW OR NO CLOUDS BELOW 12,000 FEET WITH NO
SIGNIFICANT WEATHER AND/OR OBSTRUCTIONS TO VISIBILITY.

BAJA CALIFORNIA

CITY           SKY/WX    TMP DP  RH WIND       PRES   REMARKS
LORETO         CLEAR     66  45  45 CALM      29.84
LA PAZ         CLEAR     54  54 100 S8        29.91
MEXICALI       CLEAR     50  36  57 N7        29.98  WCI  47
S.J. DEL CABO  CLEAR     57  52  82 CALM      29.91R
TIJUANA        PTCLDY    46  39  76 CALM      30.07

NORTHWESTERN MEXICO

CITY           SKY/WX    TMP DP  RH WIND       PRES   REMARKS
CULIACAN       MOCLDY    64  59  82 CALM      29.90
DURANGO        CLEAR     32  21  64 CALM      30.16
GUAYMAS        CLEAR     61  57  88 CALM      29.83
HERMOSILLO     CLEAR     55  52  88 CALM      29.88
CD. JUAREZ     CLEAR     55  39  54 W12       29.74
LOS MOCHIS     MOCLDY    64  57  77 SE9       29.90
OBREGON        FOG       61  61 100 SE9       29.85  VSB 1/2

NORTHEASTERN MEXICO

CITY           SKY/WX    TMP DP  RH WIND       PRES   REMARKS
CHIHUAHUA      CLEAR     52  19  28 S7        29.94
MATAMOROS      SUNNY     66  66 100 S5        29.75
MONCLOVA       CLEAR     68  21  17 S10       29.75
MONTERREY      SUNNY     70  21  16 W10       29.74S
NUEVO LAREDO   SUNNY     57  41  54 S6        29.64
PIEDRAS NEGRAS CLEAR     55  39  54 CALM      29.71
REYNOSA        SUNNY     55  45  67 S6        29.74
SALTILLO       CLEAR     64  30  27 SW10      30.01R
TORREON        CLEAR     55  16  21 CALM      29.96R
CD. VICTORIA   SUNNY     54  36  50 SW5       29.79

WESTERN MEXICO

CITY           SKY/WX    TMP DP  RH WIND       PRES   REMARKS
AGUASCALIENTES CLEAR     41  21  45 N6        30.19  WCI  37
COLIMA         CLEAR     68  37  32 N7        30.00R
DEL BAJIO      SUNNY     46  23  39 CALM      30.23R
GUADALAJARA    CLEAR     48  39  71 CALM      30.14
MANZANILLO     CLEAR     63  61  94 N7        29.88R
MAZATLAN       PTCLDY    55  55 100 NE7       29.91R
P. VALLARTA      N/A     66  63  88 NE8       29.88R
URUAPAN        SUNNY     48  41  76 CALM      30.12R
ZACATECAS      CLEAR     37  12  35 S6        30.18S WCI  33

CENTRAL MEXICO

CITY           SKY/WX    TMP DP  RH WIND       PRES   REMARKS
CUERNAVACA     SUNNY     63  41  45 NW2       30.07
MEXICO CITY    SUNNY     50  28  43 NE5       30.24R WCI  48
MORELIA        SUNNY     41  32  70 CALM      30.17
POZA RICA      SUNNY     57  55  94 CALM      29.85R
PUEBLA         SUNNY     45  28  53 NW6       30.25  WCI  41
QUERETARO      SUNNY     41  23  48 CALM      30.22R
S. LUIS POTOSI SUNNY     45  14  29 SW5       30.15R WCI  42
TAMPICO        SUNNY     66  63  88 CALM      29.80R
TOLUCA         SUNNY     39  34  81 CALM      30.31S

SOUTHERN MEXICO

CITY           SKY/WX    TMP DP  RH WIND       PRES   REMARKS
ACAPULCO       SUNNY     72  68  88 CALM      29.89R
B. DE HUATULCO SUNNY     75  64  69 CALM      29.92
OAXACA         SUNNY     54  30  40 NE3       30.18R
P. ESCONDIDO   SUNNY     73  70  88 CALM      29.95R
VERACRUZ       SUNNY     59  52  77 S3        29.84R
ZIHUATANEJO    SUNNY     64  59  82 CALM      29.90R

YUCATAN PENINSULA

CITY           SKY/WX    TMP DP  RH WIND       PRES   REMARKS
CAMPECHE       SUNNY     66  64  94 CALM      29.84R
CANCUN         SUNNY     68  59  73 W6        29.84R
CHETUMAL       SUNNY     64  57  77 CALM      29.88
CD. DEL CARMEN SUNNY    N/A N/A N/A MISG      29.87
COZUMEL        SUNNY     72  63  73 NW10      29.83R
MERIDA         PTSUNNY   72  61  68 W7        29.84R
MINATITLAN     SUNNY     64  57  77 S9        29.84
TAPACHULA      SUNNY     79  72  78 CALM      29.86R
TUX. GUTIERREZ SUNNY     61  43  51 CALM      29.97R
VILLAHERMOSA   MOSUNNY   64  57  77 CALM      29.89R

CENTRAL AMERICA

CITY           SKY/WX    TMP DP  RH WIND       PRES   REMARKS
BELIZE CITY    MOSUNNY   68  61  77 W3        29.88R
MANAGUA        MOSUNNY   82  73  74 CALM      29.83S

CARIBBEAN

CITY           SKY/WX    TMP DP  RH WIND       PRES   REMARKS
ARUBA          MOSUNNY   84  70  61 E12       29.92R
CURACAO        MOSUNNY   84  70  61 E10       29.94R
KINGSTON       PTSUNNY   81  70  69 SW13      29.83S
NASSAU         PTSUNNY   75  61  60 SW5       29.72S
SAN JUAN       PTSUNNY   79  73  83 E10       29.95R
SANTO DOMINGO  MOSUNNY   75  72  88 SE5       29.92
ST. CROIX      PTSUNNY   79  70  73 E14       29.96
ST. KITTS      MOSUNNY   81  68  65 S6        29.94R
ST. THOMAS     CLOUDY    73  72  94 NE10      29.95

$$





USA.gov is the U.S. government's official web portal to all federal, state and local government web resources and services.